Location: �clusier
(49.9361°N, 2.7869°E)
Time: 07:50:34
(UTC+00:00)

OBJECT-B - Pass Details

Date: 16 June 2021
Orbit: 414 x 423 km, 97.0° (Epoch: 05 June)

Event Time Altitude Azimuth Distance (km) Brightness Sun altitude
Rises 20:38:31 0° 214° (SW) 2,354 4.4 -5.3°
Reaches altitude 10° 20:41:41 10° 250° (WSW) 1,497 3.9 -5.7°
Maximum altitude 20:42:50 12° 271° (W) 1,412 4.1 -5.8°
Drops below altitude 10° 20:43:58 10° 292° (WNW) 1,501 4.8 -5.9°
Sets 20:47:10 0° 328° (NNW) 2,371 6.9 -6.3°
